Location: Wells
(51.2093°N, 2.6446°W)
Time: 14:03:21
(UTC+01:00)

CUBEBUG 2 - Pass Details

Date: 12 March 2026
Orbit: 548 x 627 km, 97.9° (Epoch: 14 April)

Event Time Altitude Azimuth Distance (km) Brightness Sun altitude
Rises 03:09:23 0° 10° (N) 2,875 ? -30.6°
Reaches altitude 10° 03:11:36 10° 5° (N) 1,977 ? -30.3°
Enters shadow 03:13:16 23° 357° (N) 1,337 ? -30.1°
